234P/LINEAR (2017)

Japanese version
Home page
Updated on February 7, 2017

---------------------------------------------------------------------

* Profile

* Pictures

* Orbital Elements

Epoch 2017 June 16.0 TT = JDT 2457920.5
T 2017 June 1.68547 TT                                  MPC
q   2.8477871            (2000.0)            P               Q
n   0.13238407     Peri.  358.09047     -0.99927547     -0.03804733
a   3.8128134      Node   179.72347     +0.03702884     -0.97775798
e   0.2531009      Incl.   11.52551     +0.00879743     -0.20625647
P   7.45
From 172 observations 2001 Dec. 26-2010 July 8, mean residual 0".8.

* Magnitudes Graph

        m1 = 12.5 + 5 log d + 10.0 log r

---------------------------------------------------------------------

The orbital elements are published on M.P.E.C. 2013-B90.
The magnitudes graphs are made with Comet for Windows.

---------------------------------------------------------------------

Copyright(C) Seiichi Yoshida (comet@aerith.net). All rights reserved.